Location: Bonny Doon Airfield
(37.0704°N, 122.1252°W)
Time: 13:32:35
(UTC-07:00)

N. Korean satellite - Pass Details

Date: 10 October 2017
Orbit: 459 x 517 km, 97.2° (Epoch: 18 October)

Event Time Altitude Azimuth Distance (km) Brightness Sun altitude
Rises 19:30:03 0° 178° (S) 2,570 10.2 -11.2°
Reaches altitude 10° 19:32:10 10° 183° (S) 1,682 9.3 -11.6°
Maximum altitude 19:35:42 51° 260° (W) 622 7.5 -12.3°
Drops below altitude 10° 19:39:11 10° 338° (NNW) 1,662 9.6 -13.0°
Sets 19:41:17 0° 343° (NNW) 2,536 10.5 -13.4°
